Flag Weather past 2 weeks in Qyzylorda, Kazakhstan

Now
18 °F

Clear.


Feels Like: 4 °F
Forecast: 10 / 21 °F
Wind: 13 mph from Northeast

Location: Kzyl-Orda

Current Time: Nov 28, 2014 at 6:53:53 PM

Latest Report: Nov 28, 2014 at 6:30 PM


Visibility: 10 mi

Pressure: 30.57 "Hg

Humidity: 62%

Dew point: 7 °F

Location of QyzylordaLocation

Historic Weather in Qyzylorda — Graph

°F

Qyzylorda temperature yesterday

Maximum temperature yesterday: 25 °F (at 3:00 PM)
Minimum temperature yesterday: 0 °F (at 5:00 AM)
Average temperature yesterday: 12 °F

Past Weeks' High & Low Weather Summary

 TemperatureHumidityPressure
High48 °F (Nov 17, 3:30 PM)100% (Nov 14, 2:00 AM)30.74 "Hg (Nov 14, 2:00 AM)
Low-2 °F (Nov 25, 7:30 AM)22% (Nov 21, 4:00 PM)29.80 "Hg (Nov 24, 3:00 AM)
Average24 °F76%30.38 "Hg
* Reported Nov 13 5:00 PM — Nov 28 5:30 PM, Qyzylorda, Weather by CustomWeather, © 2014

Note: Actual official high and low records may vary slightly from our data, if they occured in-between our weather recording intervals... More about our weather records

Advertising

Qyzylorda weather history for previous 24 hours

 ConditionsComfort  
Time TempWeatherWind HumidityBarometerVisibility
5:30 PM
Nov 28
19 °FSunny.15 mph63%30.57 "Hg10 mi
5:00 PM21 °FSunny.15 mph58%30.57 "Hg10 mi
4:30 PM23 °FSunny.15 mph54%30.57 "Hg10 mi
4:00 PM23 °FPassing clouds.15 mph54%30.57 "HgN/A
3:30 PM23 °FSunny.13 mph54%30.57 "Hg10 mi
3:00 PM21 °FSunny.13 mph58%30.57 "Hg10 mi
2:30 PM21 °FSunny.15 mph58%30.57 "Hg10 mi
2:00 PM19 °FSunny.13 mph63%30.57 "Hg10 mi
1:30 PM19 °FSunny.15 mph63%30.57 "Hg10 mi
1:00 PM18 °FSunny.10 mph68%30.60 "Hg10 mi
12:30 PM16 °FSunny.10 mph67%30.60 "Hg10 mi
12:00 PM14 °FSunny.8 mph73%30.57 "Hg10 mi
11:30 AM12 °FSunny.8 mph79%30.57 "Hg10 mi
11:00 AM10 °FSunny.8 mph79%30.57 "Hg10 mi
10:30 AM9 °FSunny.8 mph85%30.57 "Hg10 mi
10:00 AM5 °FSunny.8 mph85%30.57 "Hg10 mi
9:30 AM3 °FSunny.8 mph92%30.54 "Hg10 mi
9:00 AM3 °FSunny.6 mph78%30.54 "Hg10 mi
8:30 AM3 °FClear.6 mph85%30.54 "Hg10 mi
8:00 AM3 °FClear.8 mph85%30.54 "Hg10 mi
7:30 AM3 °FClear.6 mph85%30.51 "Hg10 mi
7:00 AM3 °FClear.8 mph85%30.51 "Hg10 mi
6:30 AM3 °FClear.6 mph85%30.51 "Hg10 mi
6:00 AM5 °FClear.6 mph78%30.51 "Hg10 mi
5:00 AM5 °FClear.6 mph85%30.51 "Hg10 mi
4:00 AM7 °FClear.8 mph78%30.48 "Hg10 mi
3:00 AM7 °FClear.6 mph78%30.48 "Hg10 mi
2:00 AM7 °FPartly cloudy.6 mph78%30.48 "Hg3 mi
1:00 AM9 °FIce fog.No wind78%30.48 "Hg3 mi
12:00 AM10 °FClear.3 mph72%30.45 "Hg10 mi
11:00 PM
Nov 27
12 °FClear.1 mph67%30.45 "Hg10 mi
10:00 PM14 °FClear.3 mph62%30.42 "Hg10 mi
9:00 PM14 °FClear.3 mph67%30.42 "Hg10 mi
8:00 PM14 °FClear.6 mph73%30.42 "Hg10 mi
7:30 PM16 °FClear.1 mph67%30.39 "Hg10 mi
7:00 PM16 °FClear.3 mph73%30.39 "Hg10 mi
6:30 PM18 °FClear.6 mph68%30.39 "Hg10 mi
6:00 PM19 °FClear.3 mph63%30.36 "Hg10 mi
Weather by CustomWeather, © 2014

See weather overviewHow to use our weather pages